Estación de San Julian

Ultimos registro cada 15 minutos 79
Estación Fecha / Hora Temperatura Humedad Lluvia Velocidad Dirección Radiación Presion
79 San Julian 03-05-2026 19:30 16,1 41,9 0 0 244 0,6 984,8
78 San Julian 03-05-2026 19:15 16,7 41,9 0 0 241 0,6 984,7
77 San Julian 03-05-2026 19:00 16,7 43,4 0 0 240 0,6 984,6
76 San Julian 03-05-2026 18:45 17,1 43,5 0 0 244 0,6 984,6
75 San Julian 03-05-2026 18:30 17,4 42,9 0 0 243 0,6 984,5
74 San Julian 03-05-2026 18:15 18,5 39,8 0 0 241 0,6 984,4
73 San Julian 03-05-2026 18:00 19,1 38,8 0 0 244 5,6 984,3
72 San Julian 03-05-2026 17:45 20,2 35,7 0 0 241 10,6 984,3
71 San Julian 03-05-2026 17:30 21,3 33,6 0 0 243 60,6 984,3
70 San Julian 03-05-2026 17:15 22,5 31,8 0 0 240 124,4 983,9
69 San Julian 03-05-2026 17:00 23,7 30,2 0 0 239 136,9 983,7
68 San Julian 03-05-2026 16:45 24,5 29,6 0 0 233 199,4 983,7
67 San Julian 03-05-2026 16:30 25,5 31,8 0 0 240 235,6 983,8
66 San Julian 03-05-2026 16:15 26,5 31,2 0 0 251 273,1 983,8
65 San Julian 03-05-2026 16:00 25,8 32,5 0 0 227 306,9 983,9
64 San Julian 03-05-2026 15:45 25,3 33,8 0 0 236 341,9 984
63 San Julian 03-05-2026 15:30 25,2 36,8 0 0 232 375,6 984,1
62 San Julian 03-05-2026 15:15 24,7 38,8 0 0 230 405,6 984,2
61 San Julian 03-05-2026 15:00 24,8 39 0 0 234 434,4 984,1
60 San Julian 03-05-2026 14:45 24 41 0 0 229 461,9 984,1
59 San Julian 03-05-2026 14:30 24,6 42,6 0 0 229 484,4 984,4
58 San Julian 03-05-2026 14:15 23,4 44,9 0 0 232 505,6 984,6
57 San Julian 03-05-2026 14:00 23,2 45,6 0 0 226 524,4 984,7
56 San Julian 03-05-2026 13:45 23,2 46,3 0 0 237 535,6 984,9
55 San Julian 03-05-2026 13:30 22,2 47,1 0 0 239 545,6 985,5
54 San Julian 03-05-2026 13:15 21,7 49,7 0 0 241 553,1 985,5
53 San Julian 03-05-2026 13:00 22,2 48 0 0 232 558,1 985,5
52 San Julian 03-05-2026 12:45 22,6 49,2 0 0 225 560,6 985,5
51 San Julian 03-05-2026 12:30 22,7 48,5 0 0 230 559,4 985,6
50 San Julian 03-05-2026 12:15 21,5 48,9 0 0 232 551,9 985,9
49 San Julian 03-05-2026 12:00 21,4 47,7 0 0 240 544,4 985,8
48 San Julian 03-05-2026 11:45 21,1 46,6 0 0 241 529,4 985,8
47 San Julian 03-05-2026 11:30 22,5 45,7 0 0 244 516,9 985,8
46 San Julian 03-05-2026 11:15 21,3 46,8 0 0 281 498,1 985,7
45 San Julian 03-05-2026 11:00 21 48 0 0 300 474,4 985,8
44 San Julian 03-05-2026 10:45 19,9 48,4 0 0 299 450,6 985,7
43 San Julian 03-05-2026 10:30 19,4 49,5 0 0 324 421,9 985,5
42 San Julian 03-05-2026 10:15 18,6 50,9 0 0 338 394,4 985,6
41 San Julian 03-05-2026 10:00 17,2 55,9 0 0 338 363,1 985,5
40 San Julian 03-05-2026 09:45 16,6 57,4 0 0 13 329,4 985,7
39 San Julian 03-05-2026 09:30 15,9 59,9 0 0 29 295,6 985,6
38 San Julian 03-05-2026 09:15 15,8 60,2 0 0 31 260,6 985,5
37 San Julian 03-05-2026 09:00 16,2 54,6 0 0 32 224,4 985,2
36 San Julian 03-05-2026 08:45 15,2 56,8 0 0 32 48,1 985
35 San Julian 03-05-2026 08:30 14,2 59,6 0 0 32 135,6 984,7
34 San Julian 03-05-2026 08:15 13,6 66,6 0 0 35 113,1 984,8
33 San Julian 03-05-2026 08:00 9,3 75,9 0 0 35 83,1 985
32 San Julian 03-05-2026 07:45 8,4 75,3 0 0 35 40,6 984,8
31 San Julian 03-05-2026 07:30 8,1 72,2 0 0 35 5,6 984,6
30 San Julian 03-05-2026 07:15 9 67,7 0 0 35 0,6 984,3
29 San Julian 03-05-2026 07:00 12,7 59,8 0 0 37 0,6 983,8
28 San Julian 03-05-2026 06:45 12,4 60,6 0 0 49 0,6 983,8
27 San Julian 03-05-2026 06:30 11,6 64,8 0 0 51 0,6 983,9
26 San Julian 03-05-2026 06:15 9,5 73,5 0 0 59 0,6 983,9
25 San Julian 03-05-2026 06:00 8,7 74,4 0 0 59 0,6 983,9
24 San Julian 03-05-2026 05:45 9,2 74,6 0 0 44 0,6 983,7
23 San Julian 03-05-2026 05:30 12,9 61,6 0 0 37 0,6 983,4
22 San Julian 03-05-2026 05:15 12,8 65,7 0 0 55 0,6 983,2
21 San Julian 03-05-2026 05:00 11,8 73 0 0 128 0,6 983,1
20 San Julian 03-05-2026 04:45 7,6 83,4 0 0 132 0,6 983,4
19 San Julian 03-05-2026 04:30 9,1 81,4 0 0 132 0,6 983,3
18 San Julian 03-05-2026 04:15 9,9 83,1 0 0 132 0,6 983,2
17 San Julian 03-05-2026 04:00 8,7 83,2 0 0 132 0,6 983,4
16 San Julian 03-05-2026 03:45 8,9 82,8 0 0 132 0,6 983,4
15 San Julian 03-05-2026 03:30 7,7 84,3 0 0 132 0,6 983,6
14 San Julian 03-05-2026 03:15 7,3 82,7 0 0 132 0,6 983,5
13 San Julian 03-05-2026 03:00 8 80,5 0 0 132 0,6 983,5
12 San Julian 03-05-2026 02:45 9,2 79,8 0 0 132 0,6 983,8
11 San Julian 03-05-2026 02:30 10,4 77 0 0 132 0,6 983,6
10 San Julian 03-05-2026 02:15 12,2 72,2 0 0 132 0,6 983,7
9 San Julian 03-05-2026 02:00 10 79,2 0 0 132 0,6 983,7
8 San Julian 03-05-2026 01:45 11,2 75,8 0 0 132 0,6 983,8
7 San Julian 03-05-2026 01:30 11,1 78,2 0 0 132 0,6 983,9
6 San Julian 03-05-2026 01:15 10,5 79,4 0 0 132 0,6 984,1
5 San Julian 03-05-2026 01:00 10,6 78,7 0 0 135 0,6 984
4 San Julian 03-05-2026 00:45 11,1 78,5 0 0 156 0,6 984
3 San Julian 03-05-2026 00:30 11,2 77,3 0 0 157 0,6 984,1
2 San Julian 03-05-2026 00:15 10,7 78,5 0 0 161 0,6 984,1
1 San Julian 03-05-2026 00:00 11,5 77,1 0 0 247 0,6 984,1